,,,PA_Meas_PMT16A,,PR_Meas_QMR101_102,,RH_Meas_QMH101,,SR_Meas_QMS101,,TA_Meas_QMH101,,GenWind,,GenWind,
date,time,status,PA,status,PR,status,RH,status,SR,status,TA,status,DirAvg,status,SpdAvg,
2008-06-06, 00:00:04,VALID,1009.34,VALID,0,VALID,93.873,VALID,0,VALID,23.4212,VALID,101,VALID,2.10859,
2008-06-06, 00:01:04,VALID,1009.33,VALID,0,VALID,93.934,VALID,0,VALID,23.4017,VALID,84,VALID,1.33359,
2008-06-06, 00:02:04,VALID,1009.33,VALID,0,VALID,93.9569,VALID,0,VALID,23.4425,VALID,96,VALID,1.21914,
2008-06-06, 00:03:04,VALID,1009.32,VALID,0,VALID,93.934,VALID,0,VALID,23.4212,VALID,90,VALID,1.4957,
2008-06-06, 00:04:04,VALID,1009.32,VALID,0,VALID,93.9874,VALID,0,VALID,23.4,VALID,97,VALID,1.19766,
2008-06-06, 00:05:04,VALID,1009.32,VALID,0,VALID,93.9874,VALID,0,VALID,23.4017,VALID,84,VALID,1.90547,
2008-06-06, 00:06:04,VALID,1009.33,VALID,0,VALID,93.9493,VALID,0,VALID,23.3823,VALID,82,VALID,2.04531,
2008-06-06, 00:07:04,VALID,1009.35,VALID,0,VALID,94.0789,VALID,0,VALID,23.3823,VALID,88,VALID,1.27891,
2008-06-06, 00:08:04,VALID,1009.34,VALID,0,VALID,94.0408,VALID,0,VALID,23.3628,VALID,77,VALID,1.72031,
2008-06-06, 00:09:04,VALID,1009.36,VALID,0,VALID,94.1018,VALID,0,VALID,23.3823,VALID,77,VALID,1.36563,
2008-06-06, 00:10:04,VALID,1009.33,VALID,0,VALID,94.1476,VALID,0,VALID,23.3628,VALID,74,VALID,0.995703,
2008-06-06, 00:11:04,VALID,1009.35,VALID,0,VALID,94.1476,VALID,0,VALID,23.3628,VALID,89,VALID,1.50234,
2008-06-06, 00:12:04,VALID,1009.35,VALID,0,VALID,94.1704,VALID,0,VALID,23.3645,VALID,94,VALID,1.32031,
2008-06-06, 00:13:04,VALID,1009.34,VALID,0,VALID,94.2086,VALID,0,VALID,23.3415,VALID,60,VALID,1.01328,
2008-06-06, 00:14:04,VALID,1009.34,VALID,0,VALID,94.2162,VALID,0.105969,VALID,23.3415,VALID,68,VALID,0.760156,
2008-06-06, 00:15:04,VALID,1009.34,VALID,0,VALID,94.1857,VALID,0,VALID,23.322,VALID,86,VALID,1.38125,
2008-06-06, 00:16:04,VALID,1009.34,VALID,0,VALID,94.2696,VALID,0,VALID,23.3433,VALID,62,VALID,1.03047,
2008-06-06, 00:17:04,VALID,1009.33,VALID,0,VALID,94.2848,VALID,0,VALID,23.3628,VALID,80,VALID,0.760938,
2008-06-06, 00:18:04,VALID,1009.33,VALID,0,VALID,94.2314,VALID,0,VALID,23.3026,VALID,108,VALID,1.17734,
2008-06-06, 00:19:04,VALID,1009.33,VALID,0,VALID,94.2543,VALID,0,VALID,23.322,VALID,78,VALID,0.269141,
2008-06-06, 00:20:04,VALID,1009.34,VALID,0,VALID,94.1933,VALID,0.105969,VALID,23.3238,VALID,97,VALID,1.51445,
2008-06-06, 00:21:04,VALID,1009.33,VALID,0,VALID,94.1857,VALID,0.105969,VALID,23.3026,VALID,93,VALID,1.00937,
2008-06-06, 00:22:04,VALID,1009.32,VALID,0,VALID,94.2619,VALID,0.105969,VALID,23.322,VALID,81,VALID,1.12109,
2008-06-06, 00:23:04,VALID,1009.32,VALID,0,VALID,94.1933,VALID,0.105969,VALID,23.322,VALID,89,VALID,1.48203,
2008-06-06, 00:24:04,VALID,1009.32,VALID,0,VALID,94.1552,VALID,0.105969,VALID,23.3026,VALID,81,VALID,1.45859,
2008-06-06, 00:25:04,VALID,1009.35,VALID,0,VALID,94.1704,VALID,0.105969,VALID,23.3026,VALID,99,VALID,1.11484,
2008-06-06, 00:26:04,VALID,1009.35,VALID,0,VALID,94.1857,VALID,0.105969,VALID,23.3026,VALID,103,VALID,1.67188,
2008-06-06, 00:27:04,VALID,1009.32,VALID,0,VALID,94.1857,VALID,0.105969,VALID,23.2831,VALID,101,VALID,1.08594,
2008-06-06, 00:28:04,VALID,1009.28,VALID,0,VALID,94.1476,VALID,0,VALID,23.3043,VALID,83,VALID,1.35938,
2008-06-06, 00:29:04,VALID,1009.28,VALID,0,VALID,94.2009,VALID,0,VALID,23.3043,VALID,88,VALID,1.8,
2008-06-06, 00:30:04,VALID,1009.28,VALID,0,VALID,94.1399,VALID,0,VALID,23.3061,VALID,97,VALID,1.47891,
2008-06-06, 00:31:04,VALID,1009.27,VALID,0,VALID,94.2162,VALID,0,VALID,23.3256,VALID,105,VALID,0.957812,
2008-06-06, 00:32:04,VALID,1009.28,VALID,0,VALID,94.2238,VALID,0,VALID,23.3043,VALID,108,VALID,0.668359,
2008-06-06, 00:33:04,VALID,1009.25,VALID,0,VALID,94.2543,VALID,0,VALID,23.3043,VALID,80,VALID,0.799219,
2008-06-06, 00:34:04,VALID,1009.23,VALID,0,VALID,94.1399,VALID,0,VALID,23.2848,VALID,76,VALID,1.31602,
2008-06-06, 00:35:04,VALID,1009.23,VALID,0,VALID,94.1018,VALID,0,VALID,23.3043,VALID,74,VALID,1.2793,
2008-06-06, 00:36:04,VALID,1009.22,VALID,0,VALID,94.1704,VALID,0.105969,VALID,23.3043,VALID,85,VALID,1.14648,
2008-06-06, 00:37:04,VALID,1009.2,VALID,0,VALID,94.1399,VALID,0,VALID,23.2848,VALID,79,VALID,1.21523,
2008-06-06, 00:38:04,VALID,1009.19,VALID,0,VALID,94.1323,VALID,0,VALID,23.3043,VALID,91,VALID,1.63398,
2008-06-06, 00:39:04,VALID,1009.2,VALID,0,VALID,94.1323,VALID,0,VALID,23.3061,VALID,60,VALID,0.906641,
2008-06-06, 00:40:04,VALID,1009.15,VALID,0,VALID,94.2162,VALID,0,VALID,23.2848,VALID,54,VALID,0.710156,
2008-06-06, 00:41:04,VALID,1009.16,VALID,0,VALID,94.1552,VALID,0,VALID,23.2848,VALID,42,VALID,1.36875,
2008-06-06, 00:42:04,VALID,1009.16,VALID,0,VALID,94.2314,VALID,0,VALID,23.2654,VALID,70,VALID,0.784766,
2008-06-06, 00:43:04,VALID,1009.19,VALID,0,VALID,94.1781,VALID,0,VALID,23.2654,VALID,80,VALID,1.02227,
2008-06-06, 00:44:04,VALID,1009.16,VALID,0,VALID,94.2238,VALID,0,VALID,23.2654,VALID,85,VALID,0.701953,
2008-06-06, 00:45:04,VALID,1009.18,VALID,0,VALID,94.2314,VALID,0,VALID,23.2654,VALID,96,VALID,1.45313,
2008-06-06, 00:46:04,VALID,1009.17,VALID,0,VALID,94.2162,VALID,0,VALID,23.2654,VALID,101,VALID,1.66094,
2008-06-06, 00:47:04,VALID,1009.15,VALID,0,VALID,94.1933,VALID,0,VALID,23.2654,VALID,93,VALID,1.52695,
2008-06-06, 00:48:04,VALID,1009.15,VALID,0,VALID,94.2086,VALID,0,VALID,23.2654,VALID,85,VALID,1.85117,
2008-06-06, 00:49:04,VALID,1009.14,VALID,0,VALID,94.2314,VALID,0,VALID,23.2848,VALID,83,VALID,1.49766,
2008-06-06, 00:50:04,VALID,1009.14,VALID,0,VALID,94.1933,VALID,0,VALID,23.2654,VALID,96,VALID,1.45195,
2008-06-06, 00:51:04,VALID,1009.12,VALID,0,VALID,94.2391,VALID,0,VALID,23.2654,VALID,74,VALID,1.65859,
2008-06-06, 00:52:04,VALID,1009.12,VALID,0,VALID,94.2543,VALID,0,VALID,23.2671,VALID,87,VALID,1.35898,
2008-06-06, 00:53:04,VALID,1009.13,VALID,0,VALID,94.2848,VALID,0,VALID,23.2866,VALID,81,VALID,1.48086,
2008-06-06, 00:54:04,VALID,1009.1,VALID,0,VALID,94.3229,VALID,0,VALID,23.2654,VALID,105,VALID,1.16719,
2008-06-06, 00:55:04,VALID,1009.1,VALID,0,VALID,94.3382,VALID,0,VALID,23.2671,VALID,103,VALID,1.30391,
2008-06-06, 00:56:04,VALID,1009.1,VALID,0,VALID,94.4297,VALID,0,VALID,23.3043,VALID,82,VALID,0.578516,
2008-06-06, 00:57:04,VALID,1009.07,VALID,0,VALID,94.3001,VALID,0,VALID,23.2654,VALID,73,VALID,1.51758,
2008-06-06, 00:58:04,VALID,1009.06,VALID,0,VALID,94.3763,VALID,0,VALID,23.3256,VALID,85,VALID,1.01328,
2008-06-06, 00:59:04,VALID,1009.04,VALID,0,VALID,94.3153,VALID,0,VALID,23.2654,VALID,85,VALID,1.41016,
2008-06-06, 01:00:04,VALID,1009.02,VALID,0,VALID,94.3229,VALID,0,VALID,23.2848,VALID,98,VALID,1.19297,
2008-06-06, 01:01:04,VALID,1009,VALID,0,VALID,94.1933,VALID,0,VALID,23.2654,VALID,100,VALID,1.67461,
2008-06-06, 01:02:04,VALID,1009.02,VALID,0,VALID,94.2009,VALID,0,VALID,23.2654,VALID,97,VALID,1.30156,
2008-06-06, 01:03:04,VALID,1008.99,VALID,0,VALID,94.2238,VALID,0,VALID,23.2654,VALID,87,VALID,1.29414,
2008-06-06, 01:04:04,VALID,1009,VALID,0,VALID,94.3153,VALID,0,VALID,23.2848,VALID,109,VALID,1.32813,
2008-06-06, 01:05:04,VALID,1008.96,VALID,0,VALID,94.2848,VALID,0,VALID,23.2866,VALID,89,VALID,0.910156,
2008-06-06, 01:06:04,VALID,1008.97,VALID,0,VALID,94.2391,VALID,0,VALID,23.2848,VALID,89,VALID,1.14102,
2008-06-06, 01:07:04,VALID,1008.95,VALID,0,VALID,94.2696,VALID,0,VALID,23.2848,VALID,64,VALID,1.06055,
2008-06-06, 01:08:04,VALID,1008.96,VALID,0,VALID,94.1857,VALID,0,VALID,23.2848,VALID,90,VALID,1.14883,
2008-06-06, 01:09:04,VALID,1008.95,VALID,0,VALID,94.2772,VALID,0,VALID,23.2848,VALID,77,VALID,0.539844,
2008-06-06, 01:10:04,VALID,1008.91,VALID,0,VALID,94.1704,VALID,0,VALID,23.2654,VALID,111,VALID,1.3125,
2008-06-06, 01:11:04,VALID,1008.93,VALID,0,VALID,94.2162,VALID,0,VALID,23.2654,VALID,71,VALID,1.53594,
2008-06-06, 01:12:04,VALID,1008.9,VALID,0,VALID,94.1857,VALID,0,VALID,23.2866,VALID,72,VALID,1.10039,
2008-06-06, 01:13:04,VALID,1008.9,VALID,0,VALID,94.2619,VALID,0,VALID,23.2654,VALID,64,VALID,1.06094,
2008-06-06, 01:14:04,VALID,1008.87,VALID,0,VALID,94.2391,VALID,0,VALID,23.2654,VALID,73,VALID,1.23477,
2008-06-06, 01:15:04,VALID,1008.83,VALID,0,VALID,94.2924,VALID,0,VALID,23.2636,VALID,62,VALID,0.821094,
2008-06-06, 01:16:04,VALID,1008.82,VALID,0,VALID,94.2924,VALID,0,VALID,23.2459,VALID,51,VALID,0.527734,
2008-06-06, 01:17:04,VALID,1008.79,VALID,0,VALID,94.3382,VALID,0,VALID,23.2654,VALID,49,VALID,0.711719,
2008-06-06, 01:18:04,VALID,1008.81,VALID,0,VALID,94.3001,VALID,0,VALID,23.2459,VALID,73,VALID,1.08672,
2008-06-06, 01:19:04,VALID,1008.8,VALID,0,VALID,94.3306,VALID,0,VALID,23.2264,VALID,82,VALID,0.760938,
2008-06-06, 01:20:04,VALID,1008.78,VALID,0,VALID,94.3229,VALID,0,VALID,23.2264,VALID,54,VALID,0.924219,
2008-06-06, 01:21:04,VALID,1008.78,VALID,0,VALID,94.4221,VALID,0.105969,VALID,23.2264,VALID,81,VALID,0.575391,
2008-06-06, 01:22:04,VALID,1008.77,VALID,0,VALID,94.3992,VALID,0,VALID,23.2264,VALID,57,VALID,1.08281,
2008-06-06, 01:23:04,VALID,1008.75,VALID,0,VALID,94.4145,VALID,0,VALID,23.2069,VALID,72,VALID,1.0043,
2008-06-06, 01:24:04,VALID,1008.76,VALID,0,VALID,94.4678,VALID,0,VALID,23.2069,VALID,74,VALID,0.945703,
2008-06-06, 01:25:04,VALID,1008.73,VALID,0,VALID,94.5212,VALID,0,VALID,23.2264,VALID,80,VALID,0.933594,
2008-06-06, 01:26:04,VALID,1008.73,VALID,0,VALID,94.506,VALID,0,VALID,23.2069,VALID,86,VALID,0.925,
2008-06-06, 01:27:04,VALID,1008.71,VALID,0,VALID,94.4983,VALID,0.105969,VALID,23.2264,VALID,45,VALID,1.11406,
2008-06-06, 01:28:04,VALID,1008.7,VALID,0,VALID,94.5136,VALID,0,VALID,23.2264,VALID,77,VALID,1.17266,
2008-06-06, 01:29:04,VALID,1008.7,VALID,0,VALID,94.4983,VALID,0,VALID,23.2264,VALID,69,VALID,0.819531,
2008-06-06, 01:30:04,VALID,1008.7,VALID,0,VALID,94.5288,VALID,0,VALID,23.2264,VALID,77,VALID,0.846094,
2008-06-06, 01:31:04,VALID,1008.65,VALID,0,VALID,94.506,VALID,0.105969,VALID,23.2264,VALID,73,VALID,1.23359,
2008-06-06, 01:32:04,VALID,1008.63,VALID,0,VALID,94.506,VALID,0,VALID,23.2069,VALID,104,VALID,1.94727,
2008-06-06, 01:33:04,VALID,1008.61,VALID,0,VALID,94.5517,VALID,0,VALID,23.2264,VALID,75,VALID,1.16797,
2008-06-06, 01:34:04,VALID,1008.62,VALID,0,VALID,94.5212,VALID,0,VALID,23.2264,VALID,83,VALID,1.35039,
2008-06-06, 01:35:04,VALID,1008.6,VALID,0,VALID,94.4755,VALID,0.105969,VALID,23.2051,VALID,78,VALID,1.15078,
2008-06-06, 01:36:04,VALID,1008.58,VALID,0,VALID,94.4678,VALID,0,VALID,23.2264,VALID,101,VALID,0.769531,
2008-06-06, 01:37:04,VALID,1008.58,VALID,0,VALID,94.4983,VALID,0,VALID,23.2264,VALID,96,VALID,1.54258,
2008-06-06, 01:38:04,VALID,1008.55,VALID,0,VALID,94.4678,VALID,0,VALID,23.2264,VALID,99,VALID,1.31758,
2008-06-06, 01:39:04,VALID,1008.54,VALID,0,VALID,94.5136,VALID,0.105969,VALID,23.2264,VALID,98,VALID,0.99375,
2008-06-06, 01:40:04,VALID,1008.55,VALID,0,VALID,94.445,VALID,0,VALID,23.2069,VALID,95,VALID,1.24141,
2008-06-06, 01:41:04,VALID,1008.53,VALID,0,VALID,94.567,VALID,0,VALID,23.2264,VALID,78,VALID,1.05039,
2008-06-06, 01:42:04,VALID,1008.51,VALID,0,VALID,94.5517,VALID,0,VALID,23.2264,VALID,95,VALID,0.724219,
2008-06-06, 01:43:04,VALID,1008.48,VALID,0,VALID,94.5288,VALID,0.105969,VALID,23.2264,VALID,104,VALID,1.44687,
2008-06-06, 01:44:04,VALID,1008.47,VALID,0,VALID,94.5593,VALID,0,VALID,23.2459,VALID,90,VALID,0.697266,
2008-06-06, 01:45:04,VALID,1008.45,VALID,0,VALID,94.4983,VALID,0,VALID,23.2459,VALID,70,VALID,1.14258,
2008-06-06, 01:46:04,VALID,1008.49,VALID,0,VALID,94.4983,VALID,0.105969,VALID,23.2459,VALID,78,VALID,1.41836,
2008-06-06, 01:47:04,VALID,1008.41,VALID,0,VALID,94.4602,VALID,0,VALID,23.2264,VALID,68,VALID,1.14258,
2008-06-06, 01:48:04,VALID,1008.43,VALID,0,VALID,94.4755,VALID,0,VALID,23.2264,VALID,74,VALID,0.918359,
2008-06-06, 01:49:04,VALID,1008.39,VALID,0,VALID,94.4831,VALID,0.105969,VALID,23.2264,VALID,79,VALID,0.969922,
2008-06-06, 01:50:04,VALID,1008.4,VALID,0,VALID,94.5136,VALID,0,VALID,23.2264,VALID,92,VALID,1.50352,
2008-06-06, 01:51:04,VALID,1008.38,VALID,0,VALID,94.4755,VALID,0,VALID,23.2069,VALID,94,VALID,1.52813,
2008-06-06, 01:52:04,VALID,1008.38,VALID,0,VALID,94.5136,VALID,0,VALID,23.2069,VALID,81,VALID,1.19609,
2008-06-06, 01:53:04,VALID,1008.36,VALID,0,VALID,94.5441,VALID,0,VALID,23.2264,VALID,66,VALID,0.869141,
2008-06-06, 01:54:04,VALID,1008.39,VALID,0,VALID,94.6127,VALID,0,VALID,23.2476,VALID,85,VALID,0.791797,
2008-06-06, 01:55:04,VALID,1008.37,VALID,0,VALID,94.5517,VALID,0,VALID,23.2069,VALID,90,VALID,0.600391,
2008-06-06, 01:56:04,VALID,1008.37,VALID,0,VALID,94.5365,VALID,0,VALID,23.2069,VALID,97,VALID,0.671094,
2008-06-06, 01:57:04,VALID,1008.37,VALID,0,VALID,94.5288,VALID,0,VALID,23.2069,VALID,92,VALID,0.4375,
2008-06-06, 01:58:04,VALID,1008.35,VALID,0,VALID,94.5365,VALID,0,VALID,23.2069,VALID,76,VALID,0.887891,
2008-06-06, 01:59:04,VALID,1008.33,VALID,0,VALID,94.5441,VALID,0,VALID,23.2264,VALID,80,VALID,0.835547,
2008-06-06, 02:00:04,VALID,1008.33,VALID,0,VALID,94.5746,VALID,0,VALID,23.1874,VALID,66,VALID,0.845312,
2008-06-06, 02:01:04,VALID,1008.33,VALID,0,VALID,94.5898,VALID,0,VALID,23.2264,VALID,52,VALID,0.407422,
2008-06-06, 02:02:04,VALID,1008.3,VALID,0,VALID,94.6203,VALID,0,VALID,23.2069,VALID,11,VALID,0.514453,
2008-06-06, 02:03:04,VALID,1008.27,VALID,0,VALID,94.6051,VALID,0,VALID,23.1874,VALID,35,VALID,0.333984,
2008-06-06, 02:04:04,VALID,1008.27,VALID,0,VALID,94.6127,VALID,0.105969,VALID,23.1874,VALID,35,VALID,0.0816406,
2008-06-06, 02:05:04,VALID,1008.27,VALID,0,VALID,94.6432,VALID,0,VALID,23.1679,VALID,35,VALID,0.124219,
2008-06-06, 02:06:04,VALID,1008.27,VALID,0,VALID,94.6585,VALID,0.105969,VALID,23.1679,VALID,35,VALID,0.253516,
2008-06-06, 02:07:04,VALID,1008.29,VALID,0,VALID,94.6737,VALID,0.105969,VALID,23.1679,VALID,35,VALID,0.30625,
2008-06-06, 02:08:04,VALID,1008.29,VALID,0,VALID,94.6814,VALID,0.105969,VALID,23.1485,VALID,21,VALID,0.299609,
2008-06-06, 02:09:04,VALID,1008.31,VALID,0,VALID,94.7042,VALID,0,VALID,23.1485,VALID,21,VALID,0.244531,
2008-06-06, 02:10:04,VALID,1008.32,VALID,0,VALID,94.7347,VALID,0,VALID,23.1485,VALID,66,VALID,0.549609,
2008-06-06, 02:11:04,VALID,1008.33,VALID,0,VALID,94.7652,VALID,0,VALID,23.129,VALID,65,VALID,0.466406,
2008-06-06, 02:12:04,VALID,1008.3,VALID,0,VALID,94.7729,VALID,0,VALID,23.1095,VALID,62,VALID,0.944141,
2008-06-06, 02:13:04,VALID,1008.31,VALID,0,VALID,94.8262,VALID,0,VALID,23.1502,VALID,78,VALID,0.578906,
2008-06-06, 02:14:04,VALID,1008.3,VALID,0,VALID,94.872,VALID,0,VALID,23.129,VALID,78,VALID,0.535937,
2008-06-06, 02:15:04,VALID,1008.28,VALID,0,VALID,94.9254,VALID,0,VALID,23.129,VALID,73,VALID,0.533594,
2008-06-06, 02:16:04,VALID,1008.27,VALID,0,VALID,94.9406,VALID,0,VALID,23.129,VALID,74,VALID,0.409766,
2008-06-06, 02:17:04,VALID,1008.25,VALID,0,VALID,94.994,VALID,0,VALID,23.129,VALID,77,VALID,0.473437,
2008-06-06, 02:18:04,VALID,1008.22,VALID,0,VALID,94.9711,VALID,0,VALID,23.1485,VALID,92,VALID,0.545703,
2008-06-06, 02:19:04,VALID,1008.2,VALID,0,VALID,94.994,VALID,0,VALID,23.1485,VALID,92,VALID,0.684766,
2008-06-06, 02:20:04,VALID,1008.16,VALID,0,VALID,94.9711,VALID,0,VALID,23.1697,VALID,91,VALID,0.733594,
2008-06-06, 02:21:04,VALID,1008.17,VALID,0,VALID,94.9559,VALID,0,VALID,23.1485,VALID,101,VALID,0.880469,
2008-06-06, 02:22:04,VALID,1008.15,VALID,0,VALID,94.994,VALID,0,VALID,23.1485,VALID,95,VALID,0.975781,
2008-06-06, 02:23:04,VALID,1008.16,VALID,0,VALID,94.994,VALID,0,VALID,23.1679,VALID,103,VALID,0.824219,
2008-06-06, 02:24:04,VALID,1008.14,VALID,0,VALID,94.994,VALID,0,VALID,23.1679,VALID,94,VALID,0.925,
2008-06-06, 02:25:04,VALID,1008.12,VALID,0,VALID,95.0474,VALID,0,VALID,23.1874,VALID,48,VALID,0.478516,
2008-06-06, 02:26:04,VALID,1008.11,VALID,0,VALID,95.0474,VALID,0,VALID,23.2087,VALID,98,VALID,0.830859,
2008-06-06, 02:27:04,VALID,1008.09,VALID,0,VALID,95.0245,VALID,0,VALID,23.1874,VALID,90,VALID,1.09219,
2008-06-06, 02:28:04,VALID,1008.1,VALID,0,VALID,95.0093,VALID,0,VALID,23.1679,VALID,91,VALID,1.28437,
2008-06-06, 02:29:04,VALID,1008.08,VALID,0,VALID,94.9864,VALID,0,VALID,23.1892,VALID,87,VALID,0.952734,
2008-06-06, 02:30:04,VALID,1008.06,VALID,0,VALID,95.0321,VALID,0,VALID,23.1874,VALID,62,VALID,0.660937,
2008-06-06, 02:31:04,VALID,1008.06,VALID,0,VALID,95.0321,VALID,0,VALID,23.1679,VALID,58,VALID,1.07813,
2008-06-06, 02:32:04,VALID,1008.07,VALID,0,VALID,95.0093,VALID,0,VALID,23.1679,VALID,65,VALID,1.08867,
2008-06-06, 02:33:04,VALID,1008.03,VALID,0,VALID,94.994,VALID,0,VALID,23.1679,VALID,73,VALID,0.853516,
2008-06-06, 02:34:04,VALID,1008.03,VALID,0,VALID,95.0016,VALID,0,VALID,23.1697,VALID,21,VALID,0.602344,
2008-06-06, 02:35:04,VALID,1008.04,VALID,0,VALID,95.0169,VALID,0,VALID,23.1485,VALID,63,VALID,0.564062,
2008-06-06, 02:36:04,VALID,1008.02,VALID,0,VALID,95.0169,VALID,0,VALID,23.1697,VALID,47,VALID,0.842578,
2008-06-06, 02:37:04,VALID,1008,VALID,0,VALID,95.0245,VALID,0,VALID,23.1502,VALID,62,VALID,0.710938,
2008-06-06, 02:38:04,VALID,1007.99,VALID,0,VALID,95.0321,VALID,0,VALID,23.129,VALID,72,VALID,1.09648,
2008-06-06, 02:39:04,VALID,1007.98,VALID,0,VALID,95.055,VALID,0,VALID,23.1502,VALID,83,VALID,0.801953,
2008-06-06, 02:40:04,VALID,1007.97,VALID,0,VALID,95.0779,VALID,0,VALID,23.1095,VALID,78,VALID,0.769141,
2008-06-06, 02:41:04,VALID,1007.95,VALID,0,VALID,95.0931,VALID,0,VALID,23.1112,VALID,84,VALID,0.962891,
2008-06-06, 02:42:04,VALID,1007.98,VALID,0,VALID,95.1542,VALID,0,VALID,23.09,VALID,29,VALID,0.314844,
2008-06-06, 02:43:04,VALID,1007.98,VALID,0,VALID,95.1465,VALID,0,VALID,23.09,VALID,61,VALID,0.515625,
2008-06-06, 02:44:04,VALID,1008.01,VALID,0,VALID,95.177,VALID,0,VALID,23.0705,VALID,61,VALID,0.892578,
2008-06-06, 02:45:04,VALID,1007.99,VALID,0,VALID,95.1694,VALID,0,VALID,23.0705,VALID,58,VALID,1.2082,
2008-06-06, 02:46:04,VALID,1008,VALID,0,VALID,95.1923,VALID,0,VALID,23.0723,VALID,81,VALID,0.788281,
2008-06-06, 02:47:04,VALID,1008,VALID,0,VALID,95.1999,VALID,0,VALID,23.0316,VALID,47,VALID,0.797266,
2008-06-06, 02:48:04,VALID,1008.01,VALID,0,VALID,95.2075,VALID,0,VALID,23.0528,VALID,80,VALID,0.892187,
2008-06-06, 02:49:04,VALID,1008.02,VALID,0,VALID,95.2533,VALID,0,VALID,23.0121,VALID,36,VALID,0.809375,
2008-06-06, 02:50:04,VALID,1008.03,VALID,0,VALID,95.299,VALID,0,VALID,23.0121,VALID,52,VALID,0.576563,
2008-06-06, 02:51:04,VALID,1008,VALID,0,VALID,95.3143,VALID,0,VALID,23.0121,VALID,62,VALID,0.143359,
2008-06-06, 02:52:04,VALID,1008.03,VALID,0,VALID,95.3372,VALID,0,VALID,23.0121,VALID,55,VALID,0.273047,
2008-06-06, 02:53:04,VALID,1008.01,VALID,0,VALID,95.3372,VALID,0,VALID,22.9926,VALID,32,VALID,0.271875,
2008-06-06, 02:54:04,VALID,1008.02,VALID,0,VALID,95.3295,VALID,0,VALID,22.9731,VALID,69,VALID,0.907422,
2008-06-06, 02:55:04,VALID,1008.02,VALID,0,VALID,95.3753,VALID,0,VALID,22.9731,VALID,68,VALID,0.290625,
2008-06-06, 02:56:04,VALID,1008.04,VALID,0,VALID,95.3982,VALID,0,VALID,22.9731,VALID,56,VALID,0.332812,
2008-06-06, 02:57:04,VALID,1008.01,VALID,0,VALID,95.3982,VALID,0,VALID,22.9536,VALID,330,VALID,0.623438,
2008-06-06, 02:58:04,VALID,1008,VALID,0,VALID,95.4363,VALID,0,VALID,22.9731,VALID,5,VALID,0.398047,
2008-06-06, 02:59:04,VALID,1008.02,VALID,0,VALID,95.4592,VALID,0,VALID,22.9536,VALID,9,VALID,0.0960938,
2008-06-06, 03:00:04,VALID,1008.02,VALID,0,VALID,95.4592,VALID,0,VALID,22.9536,VALID,343,VALID,0.740625,
2008-06-06, 03:01:04,VALID,1008.01,VALID,0,VALID,95.4973,VALID,0,VALID,22.9342,VALID,49,VALID,0.460938,
2008-06-06, 03:02:04,VALID,1008.01,VALID,0,VALID,95.5202,VALID,0,VALID,22.9554,VALID,61,VALID,0.846094,
2008-06-06, 03:03:04,VALID,1008.02,VALID,0,VALID,95.5278,VALID,0,VALID,22.9342,VALID,58,VALID,0.608594,
2008-06-06, 03:04:04,VALID,1008.01,VALID,0,VALID,95.5431,VALID,0,VALID,22.8952,VALID,54,VALID,0.622656,
2008-06-06, 03:05:04,VALID,1007.99,VALID,0,VALID,95.5583,VALID,0,VALID,22.9147,VALID,55,VALID,0.629297,
2008-06-06, 03:06:04,VALID,1007.98,VALID,0,VALID,95.6041,VALID,0,VALID,22.8952,VALID,21,VALID,0.295703,
2008-06-06, 03:07:04,VALID,1007.96,VALID,0,VALID,95.6269,VALID,0,VALID,22.8952,VALID,21,VALID,0.0046875,
2008-06-06, 03:08:04,VALID,1007.95,VALID,0,VALID,95.6422,VALID,0,VALID,22.8952,VALID,57,VALID,0.530859,
2008-06-06, 03:09:04,VALID,1007.94,VALID,0,VALID,95.6574,VALID,0,VALID,22.8757,VALID,44,VALID,0.384375,
2008-06-06, 03:10:04,VALID,1007.9,VALID,0,VALID,95.6727,VALID,0,VALID,22.8545,VALID,36,VALID,0.648047,
2008-06-06, 03:11:04,VALID,1007.89,VALID,0,VALID,95.6727,VALID,0,VALID,22.8969,VALID,42,VALID,0.504687,
2008-06-06, 03:12:04,VALID,1007.88,VALID,0,VALID,95.7032,VALID,0,VALID,22.8757,VALID,83,VALID,0.898047,
2008-06-06, 03:13:04,VALID,1007.87,VALID,0,VALID,95.7185,VALID,0,VALID,22.8757,VALID,60,VALID,0.726563,
2008-06-06, 03:14:04,VALID,1007.92,VALID,0,VALID,95.7337,VALID,0,VALID,22.8562,VALID,83,VALID,0.483984,
2008-06-06, 03:15:04,VALID,1007.9,VALID,0,VALID,95.7413,VALID,0,VALID,22.8562,VALID,72,VALID,0.645312,
2008-06-06, 03:16:04,VALID,1007.92,VALID,0,VALID,95.7566,VALID,0,VALID,22.8562,VALID,85,VALID,0.534766,
2008-06-06, 03:17:04,VALID,1007.95,VALID,0,VALID,95.7795,VALID,0,VALID,22.8562,VALID,85,VALID,0.150391,
2008-06-06, 03:18:04,VALID,1007.96,VALID,0,VALID,95.7795,VALID,0,VALID,22.8562,VALID,85,VALID,0,
2008-06-06, 03:19:04,VALID,1008.02,VALID,0,VALID,95.7871,VALID,0,VALID,22.8757,VALID,85,VALID,0.129297,
2008-06-06, 03:20:04,VALID,1008.05,VALID,0,VALID,95.81,VALID,0,VALID,22.8562,VALID,85,VALID,0.113672,
2008-06-06, 03:21:04,VALID,1008.06,VALID,0,VALID,95.8252,VALID,0,VALID,22.8562,VALID,196,VALID,0.389453,
2008-06-06, 03:22:04,VALID,1008.12,VALID,0,VALID,95.8252,VALID,0,VALID,22.8562,VALID,214,VALID,0.201172,
2008-06-06, 03:23:04,VALID,1008.11,VALID,0,VALID,95.8252,VALID,0.105969,VALID,22.8757,VALID,214,VALID,0.126172,
2008-06-06, 03:24:04,VALID,1008.11,VALID,0,VALID,95.8328,VALID,0,VALID,22.8757,VALID,214,VALID,0.207422,
2008-06-06, 03:25:04,VALID,1008.11,VALID,0,VALID,95.8328,VALID,0,VALID,22.8757,VALID,214,VALID,0.158984,
2008-06-06, 03:26:04,VALID,1008.14,VALID,0,VALID,95.8481,VALID,0.105969,VALID,22.8562,VALID,211,VALID,0.265234,
2008-06-06, 03:27:04,VALID,1008.14,VALID,0,VALID,95.8328,VALID,0,VALID,22.8562,VALID,211,VALID,0.199609,
2008-06-06, 03:28:04,VALID,1008.15,VALID,0,VALID,95.8252,VALID,0.105969,VALID,22.8368,VALID,211,VALID,0.0527344,
2008-06-06, 03:29:04,VALID,1008.15,VALID,0,VALID,95.8481,VALID,0,VALID,22.8173,VALID,103,VALID,0.435156,
2008-06-06, 03:30:04,VALID,1008.14,VALID,0,VALID,95.8557,VALID,0,VALID,22.8173,VALID,102,VALID,0.738281,
2008-06-06, 03:31:04,VALID,1008.11,VALID,0,VALID,95.8405,VALID,0,VALID,22.8173,VALID,95,VALID,0.623047,
2008-06-06, 03:32:04,VALID,1008.11,VALID,0,VALID,95.8557,VALID,0,VALID,22.8173,VALID,84,VALID,0.616797,
2008-06-06, 03:33:04,VALID,1008.12,VALID,0,VALID,95.8481,VALID,0.105969,VALID,22.8155,VALID,70,VALID,0.407422,
2008-06-06, 03:34:04,VALID,1008.1,VALID,0,VALID,95.8557,VALID,0,VALID,22.8368,VALID,70,VALID,0.632422,
2008-06-06, 03:35:04,VALID,1008.12,VALID,0,VALID,95.8786,VALID,0,VALID,22.8173,VALID,66,VALID,0.517969,
2008-06-06, 03:36:04,VALID,1008.13,VALID,0,VALID,95.8939,VALID,0,VALID,22.7978,VALID,66,VALID,0.433594,
2008-06-06, 03:37:04,VALID,1008.11,VALID,0,VALID,95.8786,VALID,0,VALID,22.7961,VALID,78,VALID,0.385156,
2008-06-06, 03:38:04,VALID,1008.15,VALID,0,VALID,95.8786,VALID,0,VALID,22.7978,VALID,78,VALID,0.350391,
2008-06-06, 03:39:04,VALID,1008.15,VALID,0,VALID,95.9015,VALID,0,VALID,22.8173,VALID,79,VALID,0.405859,
2008-06-06, 03:40:04,VALID,1008.15,VALID,0,VALID,95.8786,VALID,0,VALID,22.7978,VALID,78,VALID,0.346875,
2008-06-06, 03:41:04,VALID,1008.16,VALID,0,VALID,95.8862,VALID,0,VALID,22.8173,VALID,97,VALID,0.296875,
2008-06-06, 03:42:04,VALID,1008.14,VALID,0,VALID,95.8939,VALID,0,VALID,22.8173,VALID,97,VALID,0.227344,
2008-06-06, 03:43:04,VALID,1008.14,VALID,0,VALID,95.9167,VALID,0,VALID,22.7978,VALID,97,VALID,0.183594,
2008-06-06, 03:44:04,VALID,1008.13,VALID,0,VALID,95.8939,VALID,0,VALID,22.8173,VALID,97,VALID,0.173047,
2008-06-06, 03:45:04,VALID,1008.1,VALID,0,VALID,95.9015,VALID,0,VALID,22.8173,VALID,99,VALID,0.368359,